Погода в Убе

Япония     34°01′17″N   131°14′47″E
темп.,
°C
ветер,
м/с
пор.,
м/с
влажн.,
%
обл.,
%
осадки,
мм/ч
давл.,
гПа
погр.,
м
6 марта, сб
сб600:00+11ссз2293100 0.0 102063
03:00+10сз339599 0.0 101996
06:00+10ссз369578 0.0 1021151
09:00+14ссв5107878 0.0 1022750
12:00+15ссв696789 0.0 1024831
15:00+13с8136794 0.0 1023635
18:00+9ссв8147485 0.0 1025492
21:00+7ссв6127492 0.0 1027493
7 марта, вс
вс700:00+5ссв497743 0.0 1027380
03:00+4ссв487969 0.0 1026328
06:00+4ссв368096 0.0 1027275
09:00+7св236898 0.0 1027329
12:00+12юв125397 0.0 1026713
15:00+12юз125697 0.0 1024619
18:00+9с237396 0.0 1025226
21:00+7ссв348594 0.0 1026150
8 марта, пн
пн800:00+7с248586 0.0 1025113
03:00+6с238891 0.0 102598
06:00+6с2291100 0.0 102575
09:00+10ссв137392 0.0 1026362
12:00+15юв125266 0.0 1025859
15:00+15сз125141 0.0 1023850
18:00+10с477538 0.0 1023317
21:00+7с358426 0.0 1025126
9 марта, вт
вт900:00+6с228548 0.0 102461
03:00+6ссв228374 0.0 102449
06:00+7ссв2281100 0.0 102366
09:00+10с1272100 0.0 1024199
12:00+15зюз1158100 0.0 1023821
15:00+14зсз235599 0.0 10221011
18:00+10ссз4867100 0.0 1022461
21:00+7ссз367780 0.0 1023222
10 марта, ср
ср1000:00+7сз347638 0.0 1024116
03:00+6ссз347618 0.0 1024113
06:00+6ссз34830 0.0 1025111
09:00+12с38580 0.0 1026806
12:00+15св24500 0.0 1027943
15:00+16всв14460 0.0 10261065
18:00+11с36700 0.0 1026272
21:00+8ссв35850 0.0 1028112